Location: Gwatt
(46.7204°N, 7.6223°E)
Time: 23:47:49
(UTC+00:00)

Transit 2A - Pass Details

Date: 28 January 2021
Orbit: 601 x 958 km, 66.7° (Epoch: 07 March)

Event Time Altitude Azimuth Distance (km) Brightness Sun altitude
Rises 03:34:43 0° 238° (WSW) 3,453 - -34.8°
Reaches altitude 10° 03:37:29 10° 247° (WSW) 2,464 - -34.4°
Maximum altitude 03:42:41 36° 313° (NW) 1,225 - -33.5°
Exits shadow 03:46:22 16° 14° (NNE) 1,896 8.2 -32.9°
Drops below altitude 10° 03:47:28 10° 21° (NNE) 2,250 8.7 -32.7°
Sets 03:49:54 0° 30° (NNE) 3,117 9.6 -32.3°
